Wind_Speed
26 26 26 26 26 26 26 26 26 25 25 25 25 25 25 25 25 26 26 26 27 27 28 28 29 29 29 29 30 30 30 30 31 30 31 31 32 32 32 33 33 32 32
28 27 27 27 27 27 27 27 27 27 27 26 26 26 26 26 26 26 26 27 28 28 28 29 29 29 30 29 29 30 30 30 30 31 31 31 32 33 33 33 33 34 34
28 28 27 28 28 28 28 27 27 28 27 27 27 27 27 27 28 28 27 28 28 28 29 29 29 30 30 30 30 30 30 30 30 30 31 31 32 33 33 33 33 34 34
29 28 28 28 28 29 28 28 29 29 28 28 29 28 29 29 28 28 28 28 29 29 29 30 30 31 31 30 30 31 31 31 31 31 30 31 32 32 33 34 33 33 34
30 29 29 30 29 29 30 29 29 30 30 30 30 29 29 29 29 28 29 29 30 30 30 30 31 31 31 31 31 31 32 32 32 32 32 32 33 34 34 34 34 34 35
32 31 30 30 31 30 31 31 31 31 30 30 30 29 29 29 29 29 30 30 30 31 31 31 31 32 32 32 32 32 32 32 32 32 33 33 33 34 34 34 35 35 36
33 32 32 31 31 31 31 32 32 32 31 31 30 29 30 29 30 30 31 31 31 32 32 32 32 32 32 32 33 33 33 33 33 33 32 32 33 33 34 34 35 36 37
34 33 33 33 33 32 32 32 32 32 32 32 31 31 31 30 30 30 31 31 32 32 32 33 33 33 33 33 33 33 33 33 33 34 34 34 34 34 34 35 36 37 38
35 35 35 35 35 34 34 34 33 33 33 32 32 32 33 33 32 32 32 33 33 33 34 34 34 34 34 34 34 34 34 34 34 35 35 36 35 36 36 37 37 37 37
35 34 35 35 36 36 36 35 34 34 35 35 34 35 35 35 35 34 34 34 35 35 36 36 36 36 36 36 36 35 35 35 36 36 36 37 37 37 38 39 38 38 38
36 36 36 36 36 37 37 37 36 36 36 37 36 36 37 37 36 36 36 36 36 37 37 37 37 37 38 38 37 37 37 37 37 38 38 38 39 39 39 39 40 39 39
37 38 37 38 37 38 38 38 37 37 38 38 39 39 38 38 39 38 38 38 38 38 38 39 39 39 39 39 39 40 39 39 39 39 40 41 41 41 40 40 40 40 40
37 38 38 38 38 39 40 40 39 39 39 40 40 40 40 40 40 41 41 40 40 39 40 41 41 41 41 41 41 41 41 41 41 41 42 42 42 42 42 41 41 41 40
37 38 38 39 39 39 40 40 40 40 41 41 42 42 42 42 43 43 43 43 43 43 43 43 43 43 43 43 43 43 43 43 43 43 44 44 44 44 43 43 43 43 42
38 38 40 40 40 41 40 40 41 41 42 43 43 43 44 45 45 45 46 46 46 45 45 45 45 44 44 44 44 45 45 45 45 45 45 45 45 45 45 45 44 44 44
38 39 40 41 42 43 43 42 42 43 43 44 44 45 45 46 47 47 48 48 49 49 48 47 47 46 46 46 47 47 46 46 46 46 46 46 47 47 47 47 47 46 45
40 40 40 41 42 43 44 45 45 45 45 45 45 46 47 48 48 48 49 50 50 51 51 50 49 48 49 49 49 48 48 48 48 48 48 48 48 48 48 48 48 47 46
40 41 42 42 42 43 44 45 46 46 46 46 46 47 48 48 49 50 50 51 51 52 52 51 51 51 50 50 50 50 50 50 50 50 50 49 49 49 49 48 48 47 46
41 41 42 43 44 44 45 46 46 46 46 47 47 48 49 49 51 51 52 52 52 52 53 52 52 52 52 52 51 51 51 52 51 51 51 51 51 50 49 48 47 46 45
43 43 44 44 45 45 46 47 47 47 48 48 48 49 50 51 51 51 52 53 53 53 53 53 53 52 52 52 52 52 52 52 52 52 52 51 51 50 49 48 47 47 46
45 45 45 45 45 46 47 47 48 49 50 50 50 51 52 52 53 53 53 54 54 53 53 53 54 54 53 54 54 53 53 53 53 52 52 51 50 50 49 48 47 47 46
47 47 47 47 47 48 48 49 50 52 52 52 53 54 53 53 54 54 54 54 54 54 54 55 55 54 54 55 55 55 54 54 53 52 51 50 50 50 50 49 48 47 47
48 49 49 49 49 49 50 51 52 53 54 54 55 55 55 54 54 54 54 54 54 55 55 56 55 55 54 54 55 54 54 53 52 52 51 51 51 50 49 48 48 48 47
50 50 50 51 51 52 52 52 53 53 54 55 55 55 55 55 55 54 54 54 54 54 54 55 55 55 55 54 54 53 53 52 51 51 51 50 50 49 48 47 46 46 45
50 51 51 51 52 53 53 54 54 54 55 55 55 55 55 55 55 55 55 54 54 53 53 53 53 53 53 53 53 52 51 50 50 50 50 49 48 47 46 45 45 44 43
50 51 51 51 52 53 54 54 55 55 55 55 54 54 54 54 54 53 53 53 53 53 53 53 52 51 50 50 50 50 50 49 49 48 47 47 46 45 44 44 43 42 42
Wind_Direction
246 247 251 255 257 260 261 259 259 261 263 263 264 266 267 269 271 272 273 275 276 278 280 281 282 282 283 283 282 283 282 281 281 281 279 279 279 279 280 280 279 279 279
246 248 250 254 256 259 260 259 259 259 260 262 264 266 268 270 272 273 275 277 278 279 280 281 283 283 283 283 283 283 283 283 282 282 281 280 280 279 279 280 279 279 279
245 249 252 255 256 258 259 259 259 259 260 261 264 266 268 270 272 274 275 277 279 280 280 282 282 283 283 283 282 283 284 284 283 283 283 282 281 280 280 279 279 279 278
247 250 253 256 257 256 258 260 260 260 261 262 264 266 268 269 271 273 275 277 278 280 280 281 282 283 283 283 282 282 282 284 284 284 284 283 282 281 280 280 278 278 278
248 251 255 257 260 259 258 261 261 260 261 263 264 265 268 269 270 273 275 277 278 279 280 280 281 281 282 282 282 283 282 282 282 283 284 285 284 283 281 281 280 279 279
247 252 256 257 259 260 261 262 262 260 261 262 262 264 267 269 271 273 275 277 278 280 280 280 280 281 282 282 282 282 282 282 282 283 284 284 285 285 284 282 281 281 281
250 254 256 257 259 261 262 264 264 261 261 263 263 265 267 269 271 273 275 277 279 279 279 280 281 282 282 282 282 281 281 281 282 283 284 285 285 285 284 283 282 281 282
252 255 258 259 260 263 263 264 266 263 262 263 264 265 267 269 272 275 276 277 278 279 280 281 281 282 282 283 282 281 282 282 282 283 285 286 286 287 285 284 283 284 284
255 257 258 259 260 263 264 264 264 264 264 265 266 266 267 269 272 275 278 278 279 280 281 281 281 281 281 282 282 282 282 283 283 284 286 286 286 286 286 284 284 285 285
255 258 259 260 261 262 263 264 263 264 265 265 266 267 268 269 271 273 275 277 278 280 280 280 280 281 281 282 282 282 283 283 284 285 285 286 286 286 286 286 285 284 284
258 259 259 260 262 263 264 265 265 264 265 266 267 268 269 270 272 273 274 275 277 278 278 278 279 279 280 281 282 282 282 283 284 284 285 286 286 286 286 286 285 284 284
258 259 260 261 263 265 266 266 266 265 265 267 268 268 269 270 271 273 274 275 276 276 278 278 278 278 279 280 280 281 281 282 283 284 285 286 286 286 286 285 284 284 283
259 260 262 262 263 264 265 266 266 266 266 267 268 269 269 271 272 272 273 274 274 275 276 278 278 277 278 278 279 280 280 281 282 284 285 285 286 286 285 284 283 282 281
259 261 263 263 263 263 264 265 267 267 267 267 268 269 270 271 272 273 273 274 274 275 276 276 277 278 277 277 278 279 280 281 282 283 284 285 285 285 284 282 282 282 281
262 262 262 263 263 264 265 266 266 267 268 269 269 269 270 271 272 273 273 274 274 275 275 275 276 277 277 277 278 279 280 281 282 282 283 284 284 284 283 282 281 281 280
265 265 265 264 264 264 264 266 267 268 270 270 270 270 270 271 272 273 273 274 275 275 275 275 276 276 276 277 278 279 280 280 281 281 282 283 283 283 282 282 281 281 280
266 266 266 266 266 266 267 267 268 269 270 271 271 270 271 272 273 274 274 274 275 276 276 276 275 275 276 277 278 278 279 279 279 280 281 282 282 282 282 281 281 280 280
266 266 266 267 268 268 269 269 269 270 270 271 271 272 272 273 274 275 275 275 276 276 277 276 275 274 275 276 277 277 277 277 278 279 281 281 282 282 281 281 280 279 279
266 267 267 267 268 269 270 271 271 271 271 271 272 273 273 274 274 274 274 275 275 276 277 276 276 275 275 276 277 277 277 277 279 280 280 281 281 281 280 279 278 278 278
267 268 268 269 269 270 271 271 272 273 273 273 274 274 274 275 275 275 275 274 274 275 275 276 276 276 276 276 276 277 277 278 279 280 280 280 280 280 279 278 278 278 278
269 269 269 270 270 270 271 272 273 273 274 274 275 276 276 276 276 275 275 275 274 274 274 275 275 276 276 276 276 276 276 278 278 279 278 278 278 279 279 278 278 279 279
271 270 271 271 271 271 271 272 272 273 273 274 275 276 276 277 276 276 275 275 274 274 274 274 274 275 276 276 276 276 276 277 278 278 278 277 277 278 277 277 276 277 277
273 272 271 271 272 272 271 271 272 273 273 274 274 275 276 276 276 276 275 275 275 274 274 274 274 274 275 275 276 276 277 278 278 277 276 276 277 277 277 276 276 276 276
273 273 272 272 272 272 272 272 272 272 273 274 274 274 275 275 276 275 275 274 274 274 274 274 274 274 274 274 274 275 276 277 278 277 276 276 276 276 276 276 276 276 275
273 273 274 273 273 272 272 273 274 274 273 273 274 274 274 275 275 275 274 274 274 273 273 274 274 274 274 274 274 275 275 276 276 276 276 276 276 276 275 275 275 275 275
274 274 274 274 274 273 273 273 274 274 274 274 274 273 273 273 273 273 273 272 272 272 273 273 273 273 273 273 274 275 276 276 275 274 274 276 276 275 274 274 275 275 275
Height
5812 5814 5815 5816 5817 5818 5819 5819 5820 5820 5821 5822 5822 5822 5822 5822 5821 5820 5820 5820 5819 5818 5817 5816 5815 5814 5813 5811 5810 5809 5808 5807 5805 5804 5803 5802 5801 5800 5799 5798 5797 5797 5796
5806 5808 5809 5810 5811 5812 5813 5813 5814 5815 5815 5816 5816 5816 5816 5816 5816 5815 5814 5814 5813 5812 5811 5810 5809 5808 5806 5805 5804 5803 5802 5800 5799 5798 5796 5795 5794 5793 5791 5791 5790 5789 5788
5800 5802 5803 5804 5805 5806 5807 5807 5808 5808 5809 5810 5810 5810 5810 5810 5810 5809 5809 5808 5807 5806 5805 5804 5803 5801 5800 5799 5797 5796 5795 5794 5792 5791 5789 5788 5786 5785 5784 5783 5782 5781 5780
5794 5795 5796 5798 5799 5800 5800 5801 5802 5802 5803 5804 5804 5804 5804 5804 5803 5803 5802 5802 5801 5800 5799 5797 5796 5795 5793 5792 5791 5790 5788 5787 5786 5784 5782 5781 5779 5778 5776 5775 5774 5773 5772
5787 5789 5790 5791 5792 5793 5794 5795 5795 5796 5796 5797 5797 5797 5798 5797 5797 5796 5796 5795 5794 5793 5792 5791 5789 5788 5786 5785 5784 5783 5781 5780 5779 5777 5775 5774 5772 5770 5768 5767 5766 5765 5764
5781 5782 5783 5785 5786 5786 5787 5788 5788 5789 5789 5790 5790 5790 5790 5790 5790 5789 5789 5788 5787 5786 5785 5784 5782 5781 5779 5778 5777 5775 5774 5773 5771 5770 5768 5766 5764 5762 5761 5760 5759 5757 5756
5774 5776 5777 5778 5779 5780 5780 5781 5781 5781 5782 5783 5783 5783 5783 5783 5783 5782 5781 5781 5780 5779 5777 5776 5775 5774 5772 5771 5769 5768 5767 5765 5764 5762 5761 5759 5757 5755 5753 5751 5750 5749 5747
5767 5768 5770 5771 5772 5773 5773 5774 5774 5774 5775 5775 5776 5776 5776 5776 5775 5775 5774 5773 5772 5771 5770 5769 5767 5766 5765 5764 5762 5761 5759 5758 5756 5754 5753 5751 5749 5747 5745 5743 5742 5740 5738
5760 5761 5762 5763 5764 5765 5765 5766 5767 5767 5767 5768 5768 5769 5768 5769 5768 5768 5767 5766 5764 5763 5762 5761 5759 5758 5757 5756 5754 5753 5751 5750 5748 5746 5744 5743 5741 5739 5737 5735 5733 5731 5729
5752 5752 5754 5755 5756 5757 5757 5758 5758 5759 5759 5760 5760 5760 5760 5760 5760 5760 5759 5757 5756 5755 5754 5753 5751 5750 5748 5747 5746 5744 5743 5741 5740 5738 5736 5734 5732 5730 5728 5726 5724 5722 5720
5743 5745 5746 5747 5747 5748 5749 5749 5749 5750 5750 5751 5751 5751 5751 5751 5750 5750 5750 5749 5748 5746 5745 5744 5742 5741 5739 5738 5737 5736 5734 5732 5731 5729 5727 5725 5723 5721 5719 5716 5714 5712 5711
5735 5736 5737 5738 5738 5739 5739 5740 5740 5741 5741 5741 5742 5742 5742 5742 5741 5741 5740 5739 5739 5737 5736 5734 5733 5731 5730 5729 5727 5726 5724 5723 5721 5719 5717 5716 5714 5711 5709 5707 5705 5703 5701
5726 5727 5728 5728 5729 5729 5730 5730 5731 5731 5731 5731 5732 5731 5731 5731 5731 5730 5730 5729 5729 5728 5726 5725 5723 5721 5720 5719 5717 5716 5714 5713 5711 5709 5707 5705 5703 5701 5699 5697 5695 5693 5691
5717 5717 5718 5718 5719 5719 5720 5720 5721 5721 5721 5721 5721 5721 5721 5720 5720 5719 5719 5718 5718 5718 5716 5715 5713 5711 5710 5709 5707 5705 5704 5702 5700 5698 5696 5695 5692 5690 5688 5686 5684 5682 5681
5707 5708 5708 5709 5709 5709 5709 5710 5710 5710 5710 5710 5710 5710 5710 5709 5709 5708 5708 5707 5706 5706 5706 5704 5702 5700 5699 5697 5696 5694 5692 5691 5689 5687 5685 5683 5681 5679 5677 5675 5673 5671 5669
5697 5698 5698 5698 5699 5699 5699 5699 5699 5699 5699 5699 5699 5698 5698 5698 5697 5696 5696 5695 5694 5693 5693 5693 5690 5689 5687 5686 5684 5682 5681 5679 5677 5675 5673 5671 5669 5667 5664 5663 5661 5659 5657
5686 5687 5687 5687 5688 5688 5688 5688 5688 5688 5687 5687 5687 5686 5686 5685 5685 5684 5683 5682 5681 5680 5680 5680 5678 5676 5675 5673 5672 5670 5668 5666 5664 5662 5660 5658 5656 5654 5652 5650 5648 5647 5645
5675 5676 5676 5676 5676 5676 5676 5676 5676 5676 5675 5675 5674 5674 5673 5672 5672 5671 5670 5669 5668 5666 5666 5666 5665 5663 5662 5660 5658 5657 5655 5653 5651 5649 5647 5645 5643 5641 5639 5637 5635 5634 5632
5663 5664 5664 5664 5664 5664 5664 5663 5663 5663 5663 5662 5661 5661 5660 5659 5658 5657 5656 5655 5654 5653 5651 5651 5650 5649 5648 5646 5645 5643 5641 5639 5637 5635 5633 5631 5629 5627 5625 5623 5622 5620 5619
5651 5651 5651 5651 5651 5651 5651 5650 5650 5650 5649 5648 5648 5647 5646 5645 5644 5643 5642 5641 5640 5639 5637 5636 5636 5635 5633 5632 5630 5629 5627 5625 5624 5621 5619 5617 5615 5613 5612 5610 5609 5608 5606
5638 5638 5638 5637 5637 5637 5637 5636 5636 5636 5635 5635 5634 5632 5631 5630 5629 5628 5627 5626 5625 5624 5623 5621 5621 5620 5619 5617 5616 5614 5612 5611 5609 5607 5605 5603 5602 5600 5598 5597 5595 5594 5593
5624 5624 5624 5623 5623 5623 5622 5621 5621 5621 5620 5620 5619 5617 5616 5615 5614 5612 5611 5610 5609 5608 5607 5606 5606 5605 5603 5602 5600 5599 5597 5596 5595 5594 5591 5590 5587 5586 5584 5583 5582 5580 5579
5611 5610 5610 5609 5608 5608 5607 5606 5605 5605 5605 5604 5603 5602 5601 5599 5598 5597 5596 5595 5593 5592 5591 5591 5590 5589 5588 5587 5585 5584 5582 5580 5579 5578 5576 5576 5573 5572 5570 5568 5567 5566 5565
5597 5596 5595 5594 5594 5593 5592 5591 5590 5589 5589 5588 5587 5585 5585 5584 5582 5581 5580 5579 5578 5577 5576 5575 5575 5573 5572 5570 5569 5568 5567 5566 5565 5562 5561 5561 5559 5557 5556 5554 5553 5552 5551
5582 5581 5580 5579 5579 5578 5576 5575 5574 5573 5573 5572 5571 5569 5568 5567 5566 5565 5564 5564 5563 5561 5559 5559 5558 5557 5555 5554 5553 5553 5552 5551 5550 5548 5546 5545 5545 5543 5542 5541 5539 5538 5537
5567 5566 5565 5564 5563 5562 5561 5559 5558 5557 5557 5556 5555 5553 5552 5551 5550 5548 5548 5547 5547 5546 5545 5544 5543 5542 5540 5539 5538 5537 5536 5535 5534 5534 5533 5531 5530 5529 5530 5529 5527 5525 5524